Monticello, AR

5:28 PM CST on February 24, 2017 (GMT -0600)
Monticello Municipal-Ellis

Weather History for KLLQ - October, 2012

Change the Weather History Date:

Monday, October 1, 2012

  Actual Average Record
Temperature  
Mean Temperature 64 °F -  
Max Temperature 72 °F 82 °F 94 °F (1953)
Min Temperature 57 °F 55 °F 30 °F (1984)
Degree Days  
Heating Degree Days 1    
Growing Degree Days 14 (Base 50)    
Moisture  
Dew Point 58 °F    
Average Humidity 87    
Maximum Humidity 97    
Minimum Humidity 57    
Precipitation  
Precipitation 0.39 in - - ()
Sea Level Pressure  
Sea Level Pressure 29.66 in    
Wind  
Wind Speed 8 mph (NNW)    
Max Wind Speed 14 mph    
Max Gust Speed 24 mph    
Visibility 6 miles    
Events Rain    
Averages and records for this station are not official NWS values.
T = Trace of Precipitation, MM = Missing Value Source: NWS Daily Summary

Daily Weather History Graph

Daily Weather History Graph

Search for Another Location

Airport or City:

Trip Planner

Search our weather history database for the weather conditions in past years. The results will help you decide how hot, cold, wet, or windy it might be!

Date:

Astronomy

Oct. 01, 2012 Rise Set
Actual Time 7:01 AM CDT 6:50 PM CDT
Civil Twilight 6:36 AM CDT 7:15 PM CDT
Nautical Twilight 6:08 AM CDT 7:44 PM CDT
Astronomical Twilight 5:39 AM CDT 8:13 PM CDT
Moon 7:35 PM CDT (10/1) 8:24 AM CDT (10/1)
Length of Visible Light 12h 38m
Length of Day
11h 48m
Full, 98% of the Moon is Illuminated
Oct 1
Full
Oct 8
Last Quarter
Oct 15
New
Oct 21
First Quarter
Oct 29
Full

Hourly Weather History & Observations

Time (CDT) Temp. Dew Point Humidity Pressure Visibility Wind Dir Wind Speed Gust Speed Precip Events Conditions
12:53 AM 59.0 °F 57.0 °F 93% 29.65 in 3.0 mi NNE 9.2 mph 19.6 mph 0.01 in Rain Light Rain
1:29 AM 57.2 °F 55.4 °F 94% 29.64 in 2.5 mi North 8.1 mph 19.6 mph 0.02 in Rain Light Rain
1:53 AM 57.9 °F 57.0 °F 97% 29.64 in 2.5 mi NNE 11.5 mph 16.1 mph 0.04 in Rain Light Rain
2:38 AM 59.0 °F 57.2 °F 94% 29.63 in 3.0 mi Variable 5.8 mph - 0.04 in Rain Light Rain
2:53 AM 59.0 °F 57.0 °F 93% 29.62 in 3.0 mi Variable 6.9 mph - 0.05 in Rain Light Rain
3:53 AM 59.0 °F 57.9 °F 96% 29.62 in 3.0 mi North 8.1 mph - 0.01 in Rain Light Rain
5:10 AM 59.0 °F 57.2 °F 94% 29.61 in 4.0 mi Variable 3.5 mph - 0.00 in Rain Light Rain
5:20 AM 59.0 °F 57.2 °F 94% 29.62 in 5.0 mi North 11.5 mph 20.7 mph 0.00 in Rain Light Rain
5:53 AM 59.0 °F 57.0 °F 93% 29.62 in 5.0 mi Variable 5.8 mph - 0.00 in Rain Light Rain
7:07 AM 59.0 °F 57.2 °F 94% 29.63 in 3.0 mi North 9.2 mph 21.9 mph 0.00 in Rain Light Rain
7:14 AM 59.0 °F 57.2 °F 94% 29.64 in 4.0 mi North 9.2 mph 21.9 mph 0.00 in Rain Light Rain
7:23 AM 59.0 °F 57.2 °F 94% 29.64 in 4.0 mi North 9.2 mph 19.6 mph 0.00 in Rain Light Rain
7:34 AM 59.0 °F 57.2 °F 94% 29.64 in 2.5 mi NNW 12.7 mph 19.6 mph 0.01 in Rain Light Rain
7:41 AM 59.0 °F 57.2 °F 94% 29.65 in 2.0 mi North 8.1 mph 19.6 mph 0.01 in Rain Light Rain
7:49 AM 59.0 °F 57.2 °F 94% 29.65 in 2.5 mi North 9.2 mph - 0.01 in Rain Light Rain
7:53 AM 59.0 °F 57.0 °F 93% 29.65 in 3.0 mi NNW 10.4 mph 19.6 mph 0.01 in Rain Light Rain
8:12 AM 59.0 °F 57.2 °F 94% 29.65 in 2.5 mi NNW 13.8 mph 24.2 mph 0.01 in Rain Light Rain
8:22 AM 59.0 °F 57.2 °F 94% 29.65 in 1.8 mi NNW 9.2 mph 20.7 mph 0.05 in Rain Heavy Rain
8:37 AM 59.0 °F 57.2 °F 94% 29.65 in 1.5 mi North 10.4 mph 18.4 mph 0.12 in Rain Rain
8:46 AM 59.0 °F 57.2 °F 94% 29.65 in 2.5 mi North 10.4 mph 18.4 mph 0.14 in Rain Rain
8:53 AM 59.0 °F 57.0 °F 93% 29.65 in 3.0 mi North 10.4 mph 18.4 mph 0.15 in Rain Rain
9:05 AM 60.8 °F 57.2 °F 88% 29.66 in 2.0 mi NNE 10.4 mph 18.4 mph 0.03 in Rain Rain
9:14 AM 60.8 °F 57.2 °F 88% 29.66 in 2.0 mi Variable 5.8 mph - 0.04 in Rain Rain
9:53 AM 60.1 °F 57.9 °F 93% 29.66 in 4.0 mi North 9.2 mph - 0.09 in Rain Light Rain
10:38 AM 60.8 °F 57.2 °F 88% 29.67 in 10.0 mi Variable 6.9 mph 16.1 mph 0.03 in Rain Light Rain
10:53 AM 61.0 °F 57.9 °F 90% 29.68 in 8.0 mi NNW 6.9 mph - 0.03 in   Overcast
11:05 AM 62.6 °F 59.0 °F 88% 29.68 in 6.0 mi NNW 6.9 mph - N/A   Overcast
11:53 AM 64.9 °F 60.1 °F 84% 29.66 in 10.0 mi NW 8.1 mph - 0.00 in   Overcast
12:22 PM 64.4 °F 59.0 °F 83% 29.67 in 10.0 mi NNW 8.1 mph - N/A   Overcast
12:37 PM 64.4 °F 57.2 °F 77% 29.67 in 10.0 mi NNW 8.1 mph 17.3 mph N/A   Overcast
12:53 PM 66.0 °F 59.0 °F 78% 29.67 in 10.0 mi NW 11.5 mph 16.1 mph N/A   Overcast
1:53 PM 69.1 °F 57.9 °F 68% 29.66 in 10.0 mi NW 10.4 mph - N/A   Overcast
2:53 PM 71.1 °F 57.0 °F 61% 29.66 in 10.0 mi North 8.1 mph - N/A   Overcast
3:53 PM 71.1 °F 55.0 °F 57% 29.67 in 10.0 mi NNW 10.4 mph 18.4 mph N/A   Overcast
4:53 PM 69.1 °F 55.0 °F 61% 29.68 in 10.0 mi NW 3.5 mph - N/A   Overcast
5:53 PM 69.1 °F 57.0 °F 65% 29.68 in 10.0 mi Calm Calm - N/A   Partly Cloudy
6:53 PM 64.9 °F 61.0 °F 87% 29.70 in 10.0 mi West 3.5 mph - N/A   Clear
7:53 PM 63.0 °F 60.1 °F 90% 29.71 in 10.0 mi Calm Calm - N/A   Clear
8:53 PM 64.0 °F 59.0 °F 84% 29.74 in 10.0 mi Calm Calm - N/A   Clear
9:53 PM 63.0 °F 57.9 °F 84% 29.76 in 10.0 mi Calm Calm - N/A   Clear
11:53 PM 59.0 °F 57.0 °F 93% 29.78 in 10.0 mi Calm Calm - N/A   Clear